Wind_Speed
3 4 4 5 4 4 5 5 5 4 3 3 4 8 11 13 14 14 15 16 17 17 17 17 16 15 14 13 12 12 11 10 9 9 8 7 8 8 9 10 11 12 12 13 15 16 17 18 18 19 19 18 18 17 16 15 14 13 13 13 13 12 12 12 12 12 13 12 11 11 10 9 9 8 8 8 8 7 7 6 6 6 5 5 5
3 2 3 3 4 4 3 3 3 3 3 3 2 3 7 11 14 15 15 16 16 17 17 17 17 16 15 14 14 13 12 11 10 10 9 8 8 9 9 10 10 11 12 13 15 17 18 18 18 19 18 18 18 18 16 15 15 14 13 13 12 12 12 12 12 12 12 12 12 11 10 9 8 7 6 6 7 7 7 7 7 6 6 6 6
4 3 2 2 3 3 3 3 3 2 3 3 2 2 3 6 10 13 15 16 16 16 17 17 17 17 17 16 15 14 13 12 11 11 10 10 10 10 11 11 11 11 11 13 14 15 16 16 16 17 16 17 17 17 17 16 15 13 13 12 12 12 11 11 11 11 12 13 12 11 11 10 9 8 7 7 7 7 7 8 8 8 7 7 7
5 5 4 3 3 3 3 3 3 3 2 2 2 1 1 2 5 9 12 15 16 16 16 16 17 17 17 16 15 15 14 13 13 12 12 11 12 12 12 12 12 12 12 13 13 13 13 14 14 14 14 15 15 16 16 15 14 13 12 12 12 11 11 11 12 12 12 13 13 13 12 11 10 9 9 9 9 9 9 9 9 9 9 8 8
5 6 6 5 4 4 3 3 4 4 4 3 2 2 1 1 2 4 7 11 13 14 15 16 16 16 17 16 16 15 15 14 14 13 13 12 13 13 13 13 13 13 12 13 12 11 12 12 12 12 13 13 13 14 14 13 13 12 12 12 11 11 11 11 12 12 13 13 14 14 13 12 12 11 11 11 11 11 11 11 11 11 10 10 9
4 5 5 6 6 6 5 5 4 4 4 4 4 3 2 2 1 2 4 7 9 11 13 14 15 15 16 16 15 15 15 15 14 14 13 13 13 14 14 14 14 14 13 13 12 11 11 10 10 11 12 11 12 12 12 12 12 12 12 12 12 12 12 12 12 13 13 13 14 14 13 13 13 12 13 13 14 13 12 12 12 12 12 11 10
6 5 5 5 7 7 7 7 6 6 5 5 5 5 4 3 3 2 3 4 6 8 10 12 13 14 14 15 15 15 15 14 14 14 14 14 14 14 15 15 15 15 14 14 13 12 11 11 11 11 11 11 11 11 11 11 11 12 12 12 12 12 12 12 13 13 13 13 14 14 14 14 13 13 14 15 15 14 14 14 14 13 13 12 12
7 6 6 5 6 6 8 8 8 8 7 6 6 6 6 6 5 4 4 4 5 6 8 10 12 13 13 14 14 14 14 14 14 14 14 14 14 15 15 15 15 15 15 14 14 13 13 12 12 12 12 12 12 11 11 11 11 12 12 12 12 12 12 13 13 14 14 14 14 15 15 15 14 14 14 15 15 15 15 15 15 14 14 14 13
8 8 7 6 6 6 6 8 9 9 9 8 8 7 7 7 7 6 6 5 5 6 7 8 9 11 12 13 13 13 13 13 13 13 14 13 13 14 14 14 14 14 14 14 14 14 14 14 13 13 12 12 12 12 12 12 12 13 13 13 12 12 13 13 14 14 14 14 14 16 17 16 15 15 15 16 16 16 16 16 16 16 16 15 14
9 8 8 7 7 7 6 6 7 9 10 10 10 9 9 8 8 8 8 8 7 7 7 7 8 9 10 11 11 12 12 12 12 12 13 13 13 13 13 13 14 14 14 14 14 14 14 14 14 14 13 13 12 12 13 13 13 14 14 14 13 13 13 13 14 14 14 14 15 17 18 16 16 16 16 17 18 18 18 18 18 17 17 16 16
9 9 8 8 7 7 7 7 7 7 9 10 11 11 11 10 10 9 9 9 9 9 9 9 8 8 9 9 10 11 11 12 12 12 12 12 12 13 13 13 14 14 14 14 14 14 14 14 14 14 14 13 13 13 13 14 14 15 15 15 15 14 14 14 14 14 14 15 16 18 18 17 17 17 17 18 18 19 19 19 19 18 18 17 16
9 10 9 8 8 7 7 7 7 7 7 8 10 12 13 12 12 11 11 10 10 10 10 10 10 10 10 10 10 10 11 11 11 12 12 12 12 13 13 13 14 14 14 15 15 15 14 14 14 14 14 14 14 14 14 15 15 15 16 16 16 15 15 14 14 14 14 14 16 17 18 18 18 18 18 18 18 19 19 19 19 19 18 17 17
9 10 10 9 9 9 8 7 7 7 7 7 8 10 12 14 14 14 13 13 12 11 11 11 12 11 11 11 11 11 12 12 12 12 12 12 13 13 13 14 14 14 15 15 15 15 15 15 15 15 15 15 15 15 15 15 15 16 16 16 16 16 16 15 15 15 14 15 16 17 17 18 18 18 18 17 18 18 18 19 19 19 18 17 17
11 11 11 10 10 10 10 9 8 8 7 7 7 8 9 11 14 15 16 15 14 14 13 13 12 12 13 13 13 13 13 13 12 13 13 13 13 13 14 14 14 14 15 15 15 15 15 16 16 16 16 16 16 16 16 16 16 16 16 16 16 16 16 16 16 16 16 16 16 16 17 18 18 18 18 17 17 17 17 17 18 18 18 17 16
14 13 13 12 12 11 11 11 10 9 9 8 8 8 8 9 10 13 15 16 17 16 15 15 14 14 14 14 14 14 14 14 14 14 14 14 14 14 14 14 15 15 15 15 15 16 16 16 16 17 17 17 17 17 17 17 17 17 17 17 17 17 17 17 16 16 17 17 16 16 17 18 18 18 18 18 17 17 17 17 17 17 17 16 16
17 16 15 15 14 13 13 12 12 11 11 10 9 9 9 9 9 10 12 14 16 17 18 17 17 17 16 16 15 15 15 15 15 15 15 16 15 16 16 16 16 16 16 16 16 16 17 17 17 17 18 18 18 18 18 18 18 18 18 17 17 17 17 17 17 17 17 17 16 16 17 18 18 18 19 18 18 18 17 17 17 17 17 16 16
19 18 17 17 16 15 15 14 14 13 13 12 11 10 10 10 10 10 10 11 13 15 17 18 19 19 19 18 18 17 17 17 16 16 16 17 17 17 17 18 18 18 18 18 18 18 18 18 19 19 19 19 19 19 19 19 19 19 19 19 18 18 18 18 17 18 18 18 17 17 18 18 18 18 19 19 18 18 18 18 18 18 18 18 17
20 20 19 19 19 18 17 16 16 15 15 14 14 13 12 11 11 11 11 11 11 12 13 15 17 19 20 20 20 20 19 19 19 18 18 18 18 18 18 18 18 18 19 19 19 19 19 20 20 20 21 21 21 21 21 21 21 20 20 20 20 19 19 19 19 19 19 19 19 19 19 19 19 19 19 19 19 19 19 19 19 19 19 19 18
21 21 21 21 21 20 19 18 17 17 17 16 16 16 15 14 13 13 12 12 12 12 12 12 13 15 17 19 20 21 21 21 21 20 20 20 20 20 19 19 19 19 19 19 20 20 20 21 21 21 22 22 22 22 22 22 22 22 22 21 21 21 21 21 21 21 20 21 21 20 20 20 20 20 20 20 20 20 20 20 20 20 20 20 20
21 22 22 21 22 22 22 20 19 18 18 18 18 18 18 17 16 15 14 14 14 13 13 13 13 14 14 16 18 20 21 22 22 22 22 22 22 22 22 22 21 22 22 22 22 21 22 22 22 22 23 23 23 23 23 23 23 23 23 23 23 23 23 23 23 23 22 23 22 22 22 22 22 22 22 21 21 21 21 21 21 21 21 21 21
20 21 22 22 22 23 23 23 21 20 19 19 20 20 20 20 19 18 17 16 16 15 15 15 15 15 15 15 16 17 18 19 21 22 23 23 23 23 24 23 23 24 24 24 24 24 24 25 25 25 25 25 25 24 24 25 25 25 25 25 25 25 25 25 25 25 25 24 24 24 23 23 23 23 23 23 23 22 22 22 22 22 22 22 22
19 19 20 21 22 23 23 23 23 22 21 21 21 21 21 22 22 21 20 19 18 18 17 17 16 16 16 16 16 16 16 16 17 19 20 22 23 23 24 24 24 25 25 25 26 26 27 27 27 27 27 27 27 27 26 26 26 26 26 26 27 27 27 27 27 27 27 26 26 26 25 25 24 24 24 24 24 24 24 24 24 23 22 22 22
19 19 19 20 21 22 22 22 23 23 23 22 22 22 22 22 23 23 23 22 21 21 20 19 18 18 18 18 18 17 17 16 17 17 18 19 20 21 21 22 23 23 24 24 25 27 27 28 29 29 29 29 29 29 29 28 28 28 28 28 28 28 28 29 29 28 28 28 28 28 27 27 27 26 26 26 26 26 26 26 26 25 24 24 23
19 20 20 21 21 22 21 21 21 22 23 23 23 23 23 23 23 23 24 24 24 23 23 22 21 21 20 20 20 19 19 18 18 19 19 19 19 19 20 20 21 21 22 23 24 25 26 27 27 28 29 30 30 30 30 30 30 30 30 30 30 30 30 30 30 30 30 30 29 29 29 29 29 28 28 28 27 27 27 27 27 27 27 26 25
19 20 22 23 23 22 23 22 21 21 22 23 23 24 23 23 23 23 23 24 25 25 25 24 24 23 23 23 23 22 21 21 21 21 21 21 21 21 21 21 21 22 22 22 23 24 25 25 26 26 28 28 29 29 30 30 31 31 31 32 32 32 32 31 31 31 31 31 31 30 30 30 30 30 30 30 29 29 28 28 28 28 28 28 27
20 20 22 24 24 23 23 23 22 22 22 23 23 24 23 23 23 23 23 23 24 25 26 26 26 26 26 26 26 25 25 24 24 24 24 24 23 23 23 23 23 23 23 23 24 25 25 26 25 26 27 27 28 28 28 29 30 31 31 32 32 33 33 33 33 32 32 32 32 31 31 31 31 31 31 31 31 30 30 30 30 30 29 29 29
21 21 22 24 24 24 24 23 23 22 22 23 23 24 24 24 24 24 23 23 23 23 25 26 26 26 27 27 28 28 28 27 27 28 28 28 27 27 26 26 26 26 25 25 26 26 27 27 26 27 27 27 27 27 28 29 29 30 30 31 32 32 33 33 34 34 34 33 33 33 32 32 32 32 32 32 32 32 31 31 31 31 31 31 30
23 22 23 24 25 25 25 25 24 23 22 23 23 23 24 24 24 24 24 24 24 24 24 25 25 25 26 27 28 29 30 30 30 31 31 31 30 30 30 29 29 29 29 29 29 29 30 29 28 28 28 28 28 28 28 29 29 30 30 30 31 31 32 33 34 34 34 34 34 34 34 34 33 33 33 33 33 33 32 32 32 32 32 32 32
25 25 24 24 25 26 27 27 27 26 24 24 23 24 24 24 25 25 26 25 25 25 25 25 25 25 25 25 27 28 30 31 32 33 33 33 33 33 32 32 32 32 32 32 32 33 33 32 31 31 31 31 29 29 29 29 30 30 30 31 31 31 32 32 33 34 34 34 34 35 35 35 35 35 34 34 34 34 33 33 33 33 33 33 33
27 27 25 25 25 26 27 28 28 28 27 25 25 25 25 25 26 26 27 27 27 27 27 26 26 26 26 26 27 28 29 30 31 33 34 34 34 34 34 34 34 34 35 35 35 35 36 35 35 34 35 34 33 32 32 31 31 31 31 31 32 32 32 32 33 33 33 34 34 34 35 35 35 35 35 35 35 34 34 34 33 33 33 33 34
28 28 27 26 26 26 27 28 28 29 29 28 26 26 27 27 27 28 28 29 29 29 28 28 28 28 28 28 28 28 29 29 29 31 32 33 34 34 35 35 35 35 36 36 36 37 37 37 37 36 37 37 36 36 35 34 34 33 32 32 32 32 33 33 33 33 34 34 34 34 34 34 34 34 34 34 34 34 34 34 34 34 34 34 34
30 29 29 28 27 27 27 28 28 29 29 29 29 28 28 28 28 28 29 30 31 31 31 30 30 30 31 30 30 29 29 29 29 29 30 31 32 33 34 34 35 36 37 37 37 37 37 37 37 37 38 38 38 38 38 37 37 36 35 34 34 33 33 33 34 34 34 34 34 34 34 34 34 34 34 34 34 34 34 34 34 34 34 34 34
31 30 30 30 30 29 28 28 29 29 30 30 30 30 29 29 28 28 29 30 31 32 32 32 33 33 33 32 32 31 31 31 30 30 30 30 31 32 33 34 35 36 37 38 37 37 37 37 37 37 37 38 38 38 39 39 39 39 38 37 36 36 35 34 34 34 35 35 35 35 35 35 35 34 34 34 34 34 34 34 34 34 34 34 34
30 30 30 30 30 31 30 29 29 29 30 31 31 31 31 30 30 29 29 29 29 30 31 32 33 34 34 34 33 33 33 33 32 31 31 31 31 32 33 34 35 36 37 38 38 38 37 37 37 37 37 37 38 38 38 39 39 40 40 39 39 38 38 37 36 36 36 36 36 35 35 35 35 35 35 35 35 35 35 35 35 34 34 34 34
30 30 29 29 30 30 30 29 29 29 30 30 31 31 32 32 31 30 30 29 29 29 30 31 32 33 34 34 34 34 34 35 34 33 33 33 33 33 34 35 36 37 38 38 39 38 38 37 37 37 37 37 37 37 37 38 39 40 40 40 40 40 40 39 39 38 38 37 37 37 37 36 36 36 36 36 36 36 36 36 36 35 35 35 35
30 29 29 28 29 29 29 28 28 28 29 29 30 31 32 32 32 32 32 31 30 30 30 31 31 32 32 33 34 35 35 36 36 35 35 35 35 35 36 37 37 37 38 39 39 39 39 38 37 37 38 38 38 37 37 38 38 39 40 39 39 40 41 40 40 40 40 39 39 39 38 38 38 38 38 38 37 37 37 37 37 36 36 36 36
29 28 28 27 27 27 27 27 28 27 28 28 29 30 31 32 33 33 33 32 31 30 29 30 30 30 31 31 33 34 36 37 38 38 37 38 38 38 38 38 38 38 39 39 40 41 41 40 39 39 39 39 39 38 38 38 39 39 39 39 39 40 40 40 41 42 41 41 40 40 40 39 40 40 40 40 39 39 39 39 38 38 37 37 37
27 27 27 27 26 26 26 27 27 27 27 28 29 30 31 31 32 32 33 32 31 30 29 29 30 30 30 30 31 32 34 37 39 39 40 40 40 40 41 40 40 40 40 40 41 42 42 42 42 42 41 41 40 40 39 39 39 39 39 39 39 39 39 40 41 42 42 41 41 41 41 41 41 42 42 41 41 41 41 41 40 40 39 39 39
26 26 26 27 27 27 27 27 27 27 28 28 29 30 30 31 31 32 32 32 32 31 30 31 31 32 32 32 32 33 33 35 38 40 41 41 42 42 42 42 42 42 42 42 42 43 43 43 44 44 44 43 42 42 41 40 39 39 40 40 40 40 40 41 42 42 41 41 42 42 42 42 43 43 43 43 43 43 43 43 42 42 42 41 41
27 26 26 27 27 27 28 28 28 28 28 29 30 30 31 31 31 31 32 32 33 33 33 33 34 34 35 34 34 34 35 35 37 38 40 42 43 43 44 44 44 43 43 44 44 45 45 45 45 45 45 44 44 43 43 42 41 40 41 41 41 41 42 42 42 42 42 41 42 43 43 44 45 45 45 44 44 44 44 44 44 44 43 43 43
28 28 28 27 26 26 27 28 29 29 29 29 30 31 31 31 31 31 31 31 33 34 34 35 35 36 37 37 36 36 36 37 37 38 39 40 42 43 44 44 45 45 45 45 46 46 47 47 46 47 47 46 45 44 44 43 42 42 42 43 44 43 43 42 42 43 42 41 42 43 44 45 46 46 45 45 46 46 46 46 46 45 45 45 45
30 30 30 29 27 26 26 27 28 29 29 29 30 30 31 32 32 32 32 32 33 34 34 35 35 36 37 37 37 37 37 37 37 38 38 39 40 41 42 43 44 44 45 45 46 46 47 47 47 48 49 49 48 46 45 45 44 44 44 45 45 45 44 43 43 42 41 42 43 44 44 45 45 45 45 45 47 48 48 48 47 46 46 46 46
30 31 31 30 28 27 27 28 29 29 29 30 31 32 32 33 34 34 35 35 35 35 36 37 37 37 37 38 38 38 38 38 38 38 38 39 40 40 41 41 42 42 43 43 44 45 46 47 48 49 49 50 50 49 47 47 47 47 47 47 47 47 47 45 44 44 44 44 45 45 44 45 45 45 44 44 46 48 49 49 49 48 48 48 48
32 32 31 31 30 30 30 30 30 30 30 31 32 34 35 36 37 37 37 38 38 38 39 39 40 40 40 40 40 40 40 40 40 40 40 40 40 41 41 41 41 41 42 42 42 43 44 45 47 48 49 50 50 50 49 49 50 50 50 49 49 50 48 47 47 47 48 47 47 46 46 47 47 46 45 45 45 47 48 49 50 50 50 50 49
34 34 34 34 34 34 34 33 33 32 32 33 35 36 36 38 39 39 40 40 41 41 42 42 42 43 43 43 43 43 43 42 41 41 41 41 41 41 41 41 42 42 42 42 42 42 43 44 45 47 48 49 50 50 50 50 49 49 51 51 51 51 50 49 50 51 50 50 50 49 49 49 49 48 47 47 47 48 48 49 50 51 51 51 51
35 36 37 37 38 39 40 40 40 39 38 38 39 39 39 40 41 42 42 43 44 44 44 44 45 45 46 46 46 46 45 44 44 44 44 44 43 43 43 43 44 44 44 44 44 44 44 45 46 47 48 48 49 49 49 49 49 49 51 52 52 52 52 52 52 52 52 52 52 52 51 51 50 50 49 49 49 49 50 50 51 51 51 51 52
38 39 41 42 42 43 44 46 47 47 45 44 43 42 43 43 44 44 45 46 46 47 47 47 47 48 48 49 49 49 48 48 48 50 50 49 49 49 48 48 49 49 49 48 48 48 48 49 49 50 50 50 51 51 50 51 51 51 51 52 52 54 54 54 54 54 54 54 54 54 53 53 52 52 52 52 51 51 52 52 52 51 51 51 52
40 41 44 46 47 48 48 49 51 52 52 51 48 47 47 47 47 47 48 48 48 49 49 50 50 51 51 51 52 52 52 52 52 53 54 53 53 53 53 53 53 53 53 53 53 52 52 53 54 54 54 54 54 54 54 54 54 53 53 53 54 55 56 56 55 55 56 56 55 55 54 55 55 54 54 54 54 54 54 54 52 52 51 51 52
42 43 45 48 50 52 53 53 54 56 56 56 55 53 52 51 51 51 51 50 50 51 51 51 52 52 53 53 54 54 55 55 55 55 56 57 57 57 57 57 56 57 57 57 57 57 57 57 58 58 58 58 58 59 58 58 58 57 56 56 56 57 57 57 57 57 57 57 56 56 56 57 56 56 56 56 56 56 55 55 54 53 52 52 53
43 44 47 49 52 54 56 57 58 59 60 60 60 59 57 55 55 54 54 53 53 53 53 54 54 54 54 55 55 56 56 57 58 58 59 59 60 60 60 60 60 60 60 61 61 61 61 61 61 62 62 62 62 62 62 62 62 61 61 60 60 60 60 60 59 59 59 58 58 58 58 58 58 57 58 58 58 57 56 55 55 54 54 53 54
44 45 47 50 53 56 59 60 61 62 63 64 65 64 61 59 58 57 56 56 56 56 57 57 57 57 57 57 57 57 58 59 60 61 62 62 63 63 64 64 64 63 63 63 64 64 64 64 64 65 66 66 66 66 66 66 66 66 66 65 64 63 63 63 62 62 62 60 60 60 60 60 59 59 59 59 59 58 57 56 56 55 55 55 55
Wind_Direction
360 11 10 10 15 24 35 39 34 24 3 318 269 246 236 229 226 225 225 227 229 230 233 236 238 239 238 235 234 234 232 232 235 238 238 236 238 241 243 244 243 240 238 230 227 233 238 242 244 247 248 247 247 246 246 246 246 247 248 249 251 255 260 263 264 263 259 256 255 257 259 262 264 262 259 258 257 256 255 255 255 256 259 259 261
318 344 358 355 355 354 5 21 32 31 22 9 336 282 254 241 235 232 230 228 228 228 231 235 236 237 237 236 236 235 235 234 236 240 242 242 242 243 244 243 244 243 242 239 235 236 240 243 244 246 246 243 243 244 244 244 246 247 247 249 251 256 261 263 263 261 257 254 254 255 258 259 261 261 260 258 255 255 255 252 250 253 258 262 266
293 299 317 326 335 336 335 337 351 9 14 17 13 350 287 259 246 240 236 234 231 229 230 233 234 234 234 235 235 235 235 234 234 235 237 238 239 241 242 243 245 245 246 245 241 239 242 243 242 242 243 240 239 241 243 244 246 247 247 246 247 252 257 261 261 259 256 254 255 257 258 259 259 260 259 258 257 256 258 259 259 259 263 268 271
297 291 291 291 301 312 316 318 319 322 332 350 358 4 340 273 256 248 243 240 237 234 232 232 233 234 233 234 234 233 233 233 232 232 233 234 235 237 239 242 244 244 246 248 247 245 245 245 242 241 243 242 239 240 243 245 246 246 243 241 242 246 251 256 258 258 256 255 258 260 261 264 265 264 263 261 260 260 261 264 266 267 267 269 271
314 294 286 282 285 287 292 299 301 301 302 303 313 328 331 292 247 246 247 245 242 239 236 234 234 233 233 233 233 232 232 231 231 232 234 234 235 237 238 239 241 242 243 245 247 246 244 243 240 241 244 243 242 242 245 247 247 246 242 240 241 245 249 251 254 255 256 257 259 262 265 268 268 268 268 267 265 264 264 264 266 267 267 266 266
344 310 294 284 280 278 281 284 287 289 290 290 289 293 299 296 266 235 234 240 243 242 240 238 236 235 233 233 232 232 232 232 232 233 234 236 236 237 238 238 239 240 241 243 243 243 243 239 237 239 242 243 243 243 246 248 249 249 247 246 247 250 252 253 254 255 258 258 260 263 265 266 266 268 269 268 268 268 266 265 265 266 265 263 262
7 344 321 299 284 277 276 275 278 281 281 284 284 283 280 277 274 257 237 231 235 239 240 240 238 237 236 236 235 235 235 235 235 235 236 236 236 237 238 237 238 237 239 241 241 240 239 237 234 235 239 243 244 245 247 250 252 252 252 251 252 253 254 254 255 257 259 260 262 263 263 263 264 264 264 265 266 267 266 265 264 263 262 260 258
10 3 351 331 306 288 278 272 270 273 274 276 279 281 279 274 268 262 254 244 236 235 236 238 239 239 239 240 240 239 239 238 237 238 238 238 238 238 238 237 237 236 236 238 240 240 239 238 236 235 238 242 246 249 251 253 255 255 254 253 253 251 250 252 254 257 258 260 261 261 262 261 261 260 260 261 262 263 263 262 262 261 260 258 255
2 4 1 353 335 317 296 280 271 267 267 269 273 275 277 276 272 266 259 253 248 243 238 237 238 238 239 240 241 241 241 240 238 239 239 240 241 240 241 241 239 239 238 239 241 242 242 242 242 241 241 244 247 250 253 256 258 258 257 255 254 252 250 250 252 254 255 256 256 259 262 260 258 257 256 258 258 259 259 258 258 257 255 254 252
356 357 358 355 347 339 325 304 284 271 264 263 267 269 271 274 275 272 266 261 255 251 246 243 241 240 239 238 238 239 240 241 241 241 242 242 242 242 243 244 244 243 244 244 244 245 247 247 248 248 246 246 248 251 253 256 257 259 259 258 257 254 253 252 252 253 253 253 251 255 260 257 255 253 251 253 253 253 253 253 253 252 251 250 248
351 349 352 349 345 342 337 328 312 291 274 265 263 264 265 268 271 272 271 268 264 259 254 250 247 245 244 243 241 239 238 239 240 241 241 242 242 242 242 244 244 245 245 247 248 249 251 252 253 255 254 253 253 254 255 256 257 259 260 260 259 257 255 253 253 254 253 252 251 254 257 256 254 252 249 250 251 251 251 251 251 250 248 246 245
339 336 341 342 339 336 334 331 325 315 299 281 269 263 262 263 266 268 269 270 269 266 262 259 255 251 248 247 246 244 243 241 240 240 240 241 242 242 242 242 244 244 245 248 250 252 254 255 257 258 259 259 259 258 258 257 257 258 259 260 260 260 258 256 254 254 253 252 254 256 257 257 257 255 253 251 251 252 252 252 252 252 250 247 244
322 322 324 329 330 330 328 325 322 318 313 304 289 274 266 263 263 264 266 267 268 268 268 266 263 259 255 252 251 250 249 247 246 245 244 243 244 244 244 243 244 245 245 247 250 253 254 255 257 259 260 261 261 261 260 259 258 258 258 259 260 261 260 259 256 255 253 251 254 257 259 259 258 258 256 254 253 253 253 253 253 253 251 248 243
305 308 310 313 316 319 320 320 318 314 310 307 302 292 280 270 264 262 262 263 264 265 267 268 268 265 262 258 256 254 253 253 252 252 251 249 248 249 249 248 248 248 248 247 249 251 253 253 255 257 259 260 261 261 261 260 259 258 257 257 258 259 259 259 258 255 253 250 250 253 257 259 259 258 258 256 254 253 253 253 252 252 250 246 241
297 299 299 301 304 306 309 311 312 311 309 305 300 297 292 285 275 267 263 261 261 261 263 265 266 267 266 264 262 259 257 256 255 256 257 256 255 255 254 254 254 254 253 252 251 252 252 253 253 254 256 258 259 260 260 260 259 258 257 257 257 257 257 257 256 255 253 250 249 249 251 254 256 258 258 257 256 254 253 252 251 250 248 245 239
290 292 293 293 295 297 299 300 301 303 305 304 301 298 295 292 288 279 270 264 261 260 260 260 262 263 264 265 265 264 262 260 258 257 258 259 259 259 259 259 258 258 258 257 256 255 255 255 255 255 255 256 257 259 260 260 259 258 257 257 256 256 255 255 254 255 253 251 250 251 250 251 253 255 256 257 256 255 253 252 251 249 247 245 239
287 288 289 289 289 290 291 292 293 294 296 297 298 297 295 291 288 284 278 271 266 262 261 259 259 259 261 262 264 265 265 265 262 259 258 258 258 259 260 261 261 261 261 261 261 260 260 260 260 260 260 259 259 259 259 259 259 259 258 257 257 256 256 256 255 256 255 254 254 254 253 253 253 254 254 254 254 254 254 253 251 249 247 246 242
287 286 287 288 287 285 285 286 287 288 289 290 291 292 291 289 286 283 280 277 274 270 267 264 261 259 259 259 260 262 263 264 264 263 261 260 260 259 259 260 261 262 263 264 265 265 266 266 266 266 265 265 263 262 261 260 259 259 258 258 258 258 258 257 257 257 257 257 258 257 257 257 257 257 256 255 254 253 253 253 252 250 248 246 245
285 285 286 287 287 285 283 283 283 284 284 285 286 286 286 286 285 284 282 281 279 276 273 270 266 263 260 258 258 258 258 259 260 261 261 261 261 261 261 261 262 263 264 265 266 267 269 269 270 270 270 269 268 266 265 263 262 261 260 259 259 259 259 259 259 258 258 259 259 259 259 259 259 259 259 258 257 255 253 253 253 252 249 247 245
284 284 284 284 285 285 284 283 281 280 280 281 281 281 281 281 280 281 281 281 279 277 274 271 268 265 261 259 257 256 256 256 257 257 258 258 259 260 261 261 262 263 264 265 266 267 268 269 270 271 271 271 270 270 269 267 266 264 263 262 261 261 260 260 260 260 259 260 259 259 259 259 259 259 260 260 260 258 256 255 253 252 251 249 247
285 285 284 283 282 282 282 282 281 279 277 277 277 277 277 276 276 276 276 277 276 276 275 273 270 267 264 262 260 258 257 257 257 257 257 257 257 258 258 259 260 261 263 264 266 267 267 268 268 269 269 269 269 270 269 269 268 267 266 265 264 263 262 262 261 261 260 260 260 260 259 259 259 259 259 260 260 260 259 258 256 254 253 251 249
288 286 286 285 282 280 280 281 280 278 277 276 275 275 274 273 273 272 272 273 273 273 273 273 273 271 269 266 264 263 261 260 259 259 258 257 256 256 257 257 258 259 261 262 264 265 265 266 266 266 266 266 266 267 267 267 267 267 267 266 266 265 264 264 263 262 262 261 260 260 259 258 258 258 258 259 259 259 260 260 259 257 255 254 251
289 287 285 283 282 280 278 278 279 279 277 276 275 275 274 273 271 270 269 269 268 269 270 271 272 273 273 271 269 267 265 263 261 260 259 258 257 256 256 257 257 258 259 261 262 263 263 264 264 265 265 266 266 266 265 265 265 265 265 266 266 266 265 265 264 264 263 263 262 261 260 259 259 258 258 258 258 259 259 259 259 258 257 256 254
290 288 284 280 279 280 279 277 277 279 279 277 276 276 275 274 272 270 268 267 266 266 267 268 269 270 271 271 271 270 268 266 264 261 260 258 257 256 255 255 255 255 257 258 259 260 261 262 263 264 264 265 265 265 265 265 264 264 264 264 264 265 265 266 266 266 265 265 264 263 263 262 262 261 261 260 259 259 259 259 259 258 257 256 255
289 289 286 283 282 281 281 280 279 278 279 278 278 277 277 276 274 271 269 268 267 266 265 266 267 267 268 268 269 269 269 268 267 265 263 261 259 257 255 255 254 254 255 255 256 257 258 259 260 261 261 262 263 264 264 264 264 264 263 263 263 263 264 264 264 265 266 266 266 266 265 265 265 264 264 263 262 260 259 258 258 258 257 256 256
285 287 287 288 288 287 286 285 284 282 281 280 280 279 278 277 275 273 272 270 268 267 266 265 265 266 266 267 267 267 267 267 268 267 266 264 262 261 260 259 258 257 256 256 256 257 257 258 258 259 259 260 260 261 262 263 263 263 263 263 263 263 262 263 262 263 264 264 265 266 266 266 266 266 266 265 264 262 261 259 257 257 257 256 256
284 285 286 288 291 292 293 292 290 287 285 282 281 280 278 277 275 273 272 270 267 266 266 265 266 266 267 268 268 267 266 266 266 266 266 265 265 265 264 263 263 262 261 260 260 260 259 259 259 259 259 260 260 260 261 261 262 262 262 262 263 262 262 262 262 262 262 263 264 264 265 265 266 265 265 265 265 264 262 260 259 257 257 257 256
285 284 284 287 290 292 294 294 293 291 288 286 283 281 278 275 274 272 271 269 267 266 264 264 265 266 267 268 268 267 266 264 264 264 265 266 266 266 266 266 266 266 265 264 264 263 262 261 261 261 261 261 261 261 261 261 261 261 261 261 261 261 261 262 262 262 262 262 263 264 264 265 265 265 265 265 265 264 263 262 260 259 259 258 258
287 285 286 287 289 290 292 292 292 290 289 287 286 283 279 275 272 271 269 268 267 265 264 263 263 263 265 267 268 267 265 262 261 261 263 265 266 266 267 267 267 267 267 266 266 266 266 265 264 264 264 263 263 263 262 262 262 261 261 261 261 261 261 261 261 261 261 261 262 263 263 264 265 265 265 265 265 265 264 263 262 261 261 260 260
286 285 284 284 284 285 286 287 287 287 286 285 283 282 279 275 271 268 267 266 266 265 264 263 263 263 263 264 266 267 265 262 260 259 260 262 264 266 266 266 266 267 267 266 267 267 267 267 266 266 266 265 265 265 264 264 263 263 263 262 262 262 261 261 261 261 261 261 261 262 262 263 263 264 264 265 265 265 264 264 263 262 262 262 262
284 282 280 277 274 274 275 276 279 281 282 281 278 276 275 274 271 268 266 264 264 264 264 264 264 263 263 263 265 266 265 263 260 258 259 260 261 263 265 266 266 266 265 265 265 266 267 267 267 267 267 267 267 266 266 265 265 264 264 264 263 263 262 262 261 261 261 261 261 261 261 262 262 262 263 263 264 264 264 264 263 263 262 262 262
283 281 279 276 273 270 269 271 273 274 276 276 275 273 271 270 270 269 266 264 263 263 263 263 263 263 263 263 264 265 265 263 260 258 258 259 259 261 263 264 265 265 265 265 265 266 267 267 268 268 268 268 268 267 266 266 266 265 265 264 264 263 263 262 261 261 261 260 260 260 260 260 261 261 262 262 262 263 264 264 263 263 263 262 263
281 282 281 279 277 274 272 271 272 272 273 273 273 272 270 268 268 268 267 266 265 263 263 262 262 263 263 263 263 264 265 264 261 260 259 259 259 260 261 262 263 264 264 265 266 267 267 268 269 269 269 269 268 268 267 266 265 265 265 264 264 263 263 262 261 261 260 260 260 260 260 260 260 261 261 261 262 262 263 263 263 263 264 264 264
278 281 282 281 279 277 274 272 271 271 271 270 270 270 269 268 267 267 267 267 267 266 265 263 262 262 262 262 263 263 264 265 264 262 260 260 259 259 260 260 261 262 264 266 267 267 268 269 270 270 270 271 270 269 268 266 265 264 263 263 262 263 263 262 261 261 260 260 260 260 260 260 260 260 261 261 262 262 262 262 263 264 265 265 266
276 278 281 281 280 278 277 275 273 272 271 271 270 270 269 269 268 267 266 266 266 267 268 267 265 263 261 260 260 261 262 263 263 263 262 261 260 259 259 259 260 262 264 265 266 267 268 268 269 270 271 272 271 270 269 268 266 264 262 262 261 261 261 261 261 260 260 260 260 259 259 259 260 260 261 262 263 263 263 264 264 265 266 267 268
276 277 278 279 279 278 278 277 276 275 274 273 271 270 269 269 269 268 267 266 265 265 266 267 267 265 263 260 259 258 258 259 260 261 261 261 260 259 258 260 261 263 265 267 268 269 269 269 269 270 271 271 271 270 270 269 267 265 264 263 262 261 261 261 260 260 260 259 260 259 259 259 259 260 260 261 262 263 264 264 265 266 267 268 268
275 275 275 276 276 276 277 277 277 276 274 272 270 269 268 268 268 268 268 267 266 266 265 265 266 266 265 264 262 259 258 258 258 258 258 259 260 259 259 260 262 264 267 270 272 273 274 273 272 271 271 271 271 271 270 269 268 267 267 265 264 263 262 261 260 260 259 259 259 260 260 260 260 260 260 260 261 262 263 264 265 265 266 266 267
274 273 272 273 273 273 273 274 275 275 273 270 268 267 267 267 267 266 267 268 267 266 263 262 263 265 266 266 265 263 260 259 258 258 257 257 258 259 260 261 262 264 267 270 272 274 275 276 275 274 273 272 271 271 271 270 269 269 268 266 264 263 262 261 260 260 259 259 259 259 259 260 260 261 261 262 262 263 263 264 264 265 265 265 265
273 270 268 268 270 271 272 272 271 272 272 272 270 269 268 268 268 267 266 267 268 267 264 261 261 263 265 266 266 264 262 260 259 258 258 258 258 259 260 261 261 263 265 267 269 271 272 273 273 274 274 273 273 273 273 272 271 270 268 267 265 263 262 261 260 260 259 259 259 259 259 259 259 260 261 262 263 263 264 264 264 265 264 264 264
273 268 265 265 266 269 271 272 270 269 270 271 272 271 270 270 269 269 268 268 268 268 265 263 263 264 266 267 267 265 264 262 260 259 258 258 259 259 260 261 261 261 262 264 266 267 268 269 271 272 273 273 273 273 273 273 272 271 270 269 267 264 262 261 262 261 261 261 261 260 260 259 260 260 261 262 263 263 264 264 265 265 264 264 264
273 269 268 266 265 265 266 267 268 268 267 268 269 269 270 271 271 271 270 269 269 268 267 266 266 266 267 268 267 265 264 263 263 263 262 261 261 261 261 261 262 262 262 263 264 265 267 268 269 271 272 272 271 271 271 271 272 272 272 270 268 267 266 265 264 264 264 264 263 263 262 262 262 262 263 263 264 264 264 264 265 265 265 265 264
275 271 269 266 263 262 262 263 263 263 263 263 264 265 266 268 271 272 273 273 272 271 270 269 269 268 268 269 268 267 265 264 263 263 264 264 264 264 263 263 263 263 264 264 265 265 266 267 268 269 270 271 271 270 270 271 271 271 269 269 269 269 269 267 265 265 266 266 265 264 264 265 265 265 265 265 266 266 265 266 266 266 266 265 265
276 272 268 264 262 260 259 260 260 260 259 259 260 262 264 266 267 269 270 272 274 274 274 273 272 271 270 270 271 271 270 269 267 266 265 265 265 265 265 264 264 264 264 265 265 266 266 267 267 268 269 270 270 271 271 271 270 269 269 269 269 268 268 268 267 267 266 265 265 265 266 266 267 267 268 267 267 267 267 268 267 267 266 266 266
274 272 269 267 265 265 264 264 263 262 261 260 260 262 264 266 267 266 267 268 269 271 273 274 275 275 274 273 273 273 272 272 271 270 269 269 269 269 268 268 267 266 265 265 265 265 265 266 266 267 268 269 270 270 270 269 269 269 270 269 268 267 267 267 267 266 265 265 265 265 265 266 266 267 268 268 268 268 269 269 268 267 267 266 266
276 273 270 269 269 269 268 268 268 268 268 268 269 268 267 267 268 268 268 268 268 268 269 271 272 273 273 273 273 273 272 271 270 270 271 271 271 271 272 272 271 270 269 268 268 267 266 266 266 267 267 268 269 269 269 269 268 269 269 268 268 268 267 266 265 265 265 265 265 265 265 265 266 267 267 267 267 267 268 268 268 268 268 267 267
276 272 269 269 270 271 271 270 271 271 272 274 276 275 272 271 270 270 269 269 269 269 270 270 271 271 271 271 271 271 270 268 267 269 270 271 270 270 270 272 272 272 272 271 271 271 270 268 267 267 268 268 269 270 269 268 267 267 267 267 268 268 267 265 264 264 264 264 265 265 265 266 266 267 267 265 265 265 266 266 267 268 268 268 268
276 272 269 269 270 271 272 273 275 276 276 278 278 277 276 275 273 272 272 271 271 271 270 270 271 271 271 271 270 269 268 265 264 265 267 268 268 268 269 269 270 270 270 271 271 271 271 270 270 270 269 268 269 270 270 268 267 266 265 265 266 267 266 265 264 263 263 263 263 264 265 266 266 266 266 265 265 265 264 265 265 266 267 268 268
276 272 271 271 271 271 272 272 274 277 280 282 283 280 278 277 276 275 274 273 273 272 272 272 271 271 271 271 270 270 268 266 264 263 263 264 265 265 266 267 267 267 268 268 268 268 269 269 270 270 270 270 270 270 269 268 267 266 264 263 264 265 265 265 264 264 263 263 263 264 264 265 264 265 265 265 265 265 265 265 266 266 266 266 266
275 272 270 270 271 271 272 272 272 275 279 282 284 283 280 278 277 276 275 274 273 273 273 273 272 272 271 270 270 269 268 267 265 264 262 261 261 262 263 264 264 265 265 266 266 267 266 266 267 268 269 269 270 270 269 268 267 265 263 262 261 262 263 264 264 264 264 264 263 263 262 262 262 263 263 264 264 265 266 266 267 266 266 265 265
271 268 266 266 267 268 269 270 271 272 275 278 281 283 281 279 278 276 275 274 274 273 273 273 272 271 270 269 268 268 267 266 265 265 263 262 261 260 261 262 263 262 263 263 264 265 265 265 266 266 267 267 268 269 269 269 268 266 264 263 261 261 261 262 262 262 261 262 262 262 262 262 262 262 262 262 263 264 265 265 266 267 267 266 265
269 266 263 260 261 262 264 266 267 269 271 274 277 281 281 280 278 277 275 274 273 273 273 272 272 270 269 268 266 265 264 263 263 263 262 261 261 260 261 262 262 262 262 262 262 262 262 263 264 265 265 266 266 267 267 267 267 267 266 265 263 262 261 261 261 260 259 259 260 260 260 260 260 261 261 262 262 262 262 263 264 265 266 266 265
Height
5869 5869 5869 5869 5869 5869 5869 5869 5870 5870 5871 5871 5871 5872 5872 5873 5873 5873 5874 5874 5875 5875 5876 5876 5877 5877 5878 5878 5878 5878 5878 5879 5879 5879 5880 5880 5880 5880 5881 5881 5882 5882 5883 5883 5884 5885 5885 5885 5885 5886 5886 5887 5887 5888 5889 5889 5890 5891 5891 5891 5891 5892 5892 5893 5893 5893 5893 5894 5894 5894 5895 5895 5895 5895 5895 5896 5896 5896 5897 5897 5897 5897 5897 5897 5897
5869 5869 5869 5869 5870 5870 5870 5870 5870 5870 5870 5871 5871 5871 5872 5872 5873 5873 5873 5874 5874 5875 5875 5876 5876 5877 5877 5877 5877 5878 5878 5878 5878 5878 5879 5879 5880 5880 5880 5881 5881 5882 5882 5883 5883 5884 5884 5884 5884 5884 5885 5886 5886 5887 5887 5888 5889 5890 5890 5890 5891 5891 5892 5892 5892 5893 5893 5893 5893 5894 5894 5894 5895 5895 5895 5895 5896 5896 5896 5896 5896 5896 5896 5896 5897
5869 5869 5869 5869 5870 5870 5870 5870 5870 5870 5870 5871 5871 5871 5871 5872 5872 5873 5873 5873 5874 5874 5875 5875 5875 5876 5876 5877 5877 5877 5878 5878 5878 5878 5878 5878 5879 5879 5880 5880 5881 5881 5882 5882 5882 5882 5883 5883 5883 5883 5884 5885 5885 5886 5886 5887 5888 5888 5889 5890 5890 5890 5891 5891 5892 5892 5892 5893 5893 5893 5894 5894 5894 5895 5895 5895 5895 5895 5895 5895 5896 5896 5896 5896 5896
5870 5869 5870 5870 5870 5870 5870 5870 5870 5870 5870 5870 5871 5871 5871 5871 5872 5872 5873 5873 5873 5874 5874 5874 5875 5875 5876 5876 5876 5877 5877 5877 5877 5878 5878 5878 5878 5878 5879 5880 5880 5881 5881 5881 5881 5882 5882 5882 5882 5883 5883 5884 5884 5885 5885 5886 5886 5887 5888 5889 5889 5889 5890 5891 5891 5891 5892 5892 5892 5892 5893 5894 5894 5894 5894 5895 5895 5895 5895 5895 5895 5895 5895 5895 5896
5870 5870 5870 5870 5870 5870 5870 5870 5870 5870 5870 5870 5870 5870 5871 5871 5871 5871 5872 5872 5873 5873 5873 5874 5874 5874 5875 5875 5875 5876 5876 5876 5877 5877 5877 5877 5877 5878 5878 5879 5879 5880 5880 5880 5881 5881 5881 5882 5882 5882 5882 5883 5883 5884 5884 5885 5885 5886 5887 5887 5888 5889 5889 5890 5890 5890 5891 5891 5891 5892 5892 5893 5893 5894 5894 5894 5894 5894 5894 5894 5895 5895 5895 5895 5895
5870 5870 5870 5870 5870 5870 5870 5870 5870 5870 5870 5870 5870 5870 5870 5870 5870 5871 5871 5871 5872 5872 5873 5873 5873 5874 5874 5874 5875 5875 5875 5876 5876 5876 5876 5877 5877 5877 5877 5878 5878 5879 5879 5880 5880 5880 5881 5881 5881 5882 5882 5882 5882 5883 5883 5884 5884 5885 5886 5887 5887 5888 5888 5889 5889 5890 5890 5890 5890 5891 5892 5892 5892 5893 5893 5893 5893 5893 5894 5894 5894 5894 5894 5894 5894
5870 5870 5869 5869 5869 5870 5870 5870 5870 5870 5870 5870 5870 5870 5870 5870 5870 5870 5870 5871 5871 5871 5872 5872 5873 5873 5873 5874 5874 5874 5875 5875 5875 5875 5876 5876 5876 5876 5877 5877 5878 5878 5879 5879 5879 5880 5880 5881 5881 5881 5881 5881 5881 5882 5882 5883 5883 5884 5885 5886 5887 5887 5887 5888 5888 5889 5889 5889 5889 5890 5890 5890 5891 5892 5892 5892 5892 5892 5893 5893 5893 5893 5894 5893 5894
5870 5870 5869 5869 5869 5869 5869 5869 5869 5869 5870 5870 5869 5869 5869 5869 5869 5869 5870 5870 5870 5871 5871 5871 5872 5872 5873 5873 5873 5874 5874 5874 5874 5875 5875 5875 5875 5876 5876 5877 5877 5878 5878 5879 5879 5879 5879 5880 5880 5880 5880 5881 5881 5881 5882 5882 5883 5883 5884 5885 5886 5886 5886 5887 5887 5888 5888 5888 5888 5888 5888 5889 5890 5890 5890 5890 5890 5891 5891 5892 5892 5892 5892 5892 5893
5870 5870 5869 5869 5869 5869 5869 5869 5869 5869 5869 5869 5869 5869 5869 5869 5869 5869 5869 5869 5869 5870 5870 5871 5871 5871 5872 5872 5873 5873 5873 5874 5874 5874 5874 5874 5875 5875 5875 5876 5876 5877 5877 5878 5878 5878 5879 5879 5879 5880 5880 5880 5880 5881 5881 5881 5882 5883 5883 5884 5884 5885 5885 5885 5886 5886 5887 5887 5887 5886 5887 5888 5888 5889 5889 5889 5889 5889 5890 5890 5890 5891 5891 5891 5891
5870 5870 5869 5869 5869 5868 5868 5868 5868 5868 5868 5868 5868 5868 5868 5868 5868 5868 5868 5869 5869 5869 5869 5870 5870 5870 5871 5871 5872 5872 5872 5873 5873 5873 5874 5874 5874 5874 5875 5875 5875 5876 5877 5877 5877 5877 5878 5878 5878 5879 5879 5880 5880 5880 5880 5881 5881 5881 5882 5882 5883 5883 5884 5884 5884 5885 5885 5886 5886 5885 5885 5886 5887 5887 5888 5888 5888 5888 5888 5888 5888 5889 5889 5889 5890
5870 5869 5869 5869 5869 5868 5868 5868 5867 5867 5867 5867 5867 5867 5867 5867 5868 5868 5868 5868 5868 5868 5868 5869 5869 5870 5870 5870 5871 5871 5872 5872 5872 5873 5873 5873 5873 5874 5874 5874 5875 5875 5876 5876 5876 5877 5877 5877 5877 5878 5878 5879 5879 5879 5880 5880 5880 5880 5881 5881 5881 5882 5882 5883 5883 5884 5884 5884 5884 5884 5884 5884 5885 5886 5886 5886 5886 5886 5887 5887 5887 5887 5888 5888 5888
5870 5869 5869 5869 5868 5868 5868 5867 5867 5867 5867 5866 5866 5866 5866 5866 5867 5867 5867 5867 5867 5867 5868 5868 5868 5869 5869 5870 5870 5870 5871 5871 5872 5872 5872 5872 5873 5873 5873 5874 5874 5874 5875 5875 5875 5876 5876 5876 5876 5876 5877 5877 5878 5878 5879 5879 5879 5879 5880 5880 5880 5881 5881 5881 5882 5883 5883 5883 5883 5883 5883 5883 5883 5884 5885 5885 5885 5885 5885 5886 5886 5886 5886 5887 5887
5870 5869 5868 5868 5868 5868 5867 5867 5867 5866 5866 5866 5866 5866 5866 5866 5866 5866 5866 5866 5866 5867 5867 5867 5867 5868 5868 5869 5869 5869 5870 5870 5871 5871 5871 5871 5872 5872 5872 5873 5873 5873 5874 5874 5874 5874 5875 5875 5875 5875 5876 5876 5877 5877 5877 5878 5878 5878 5878 5879 5879 5879 5879 5880 5880 5881 5882 5882 5882 5882 5881 5882 5882 5883 5883 5884 5884 5884 5884 5884 5884 5885 5885 5885 5886
5869 5868 5868 5868 5867 5867 5867 5866 5866 5866 5866 5866 5865 5865 5865 5865 5865 5865 5865 5865 5865 5866 5866 5866 5867 5867 5867 5868 5868 5868 5869 5869 5870 5870 5870 5871 5871 5871 5871 5872 5872 5872 5872 5873 5873 5873 5873 5874 5874 5874 5874 5875 5875 5875 5876 5876 5877 5877 5877 5877 5877 5878 5878 5878 5879 5879 5880 5880 5881 5881 5880 5880 5881 5881 5882 5882 5883 5883 5883 5883 5883 5883 5884 5884 5884
5867 5867 5867 5867 5867 5866 5866 5866 5866 5865 5865 5865 5865 5865 5864 5864 5864 5864 5864 5864 5864 5864 5865 5865 5866 5866 5866 5867 5867 5867 5868 5868 5868 5869 5869 5869 5870 5870 5870 5871 5871 5871 5871 5871 5871 5872 5872 5872 5872 5873 5873 5873 5873 5874 5874 5874 5875 5875 5876 5876 5876 5876 5876 5877 5877 5878 5878 5878 5879 5880 5879 5879 5880 5880 5880 5881 5881 5882 5882 5882 5882 5882 5882 5883 5883
5865 5866 5865 5865 5865 5865 5865 5865 5865 5865 5864 5864 5864 5864 5864 5864 5864 5863 5863 5863 5863 5863 5864 5864 5864 5865 5865 5865 5866 5866 5867 5867 5867 5868 5868 5868 5868 5868 5869 5869 5869 5869 5869 5869 5870 5870 5870 5870 5871 5871 5871 5872 5872 5872 5872 5873 5873 5874 5874 5874 5874 5875 5875 5876 5876 5876 5876 5877 5878 5878 5878 5878 5878 5878 5879 5879 5880 5880 5880 5881 5881 5881 5881 5882 5882
5863 5864 5864 5864 5864 5864 5864 5864 5864 5864 5864 5863 5863 5863 5863 5863 5863 5863 5862 5862 5862 5862 5862 5862 5863 5863 5864 5864 5864 5865 5865 5865 5866 5866 5866 5866 5867 5867 5867 5867 5867 5868 5868 5868 5868 5868 5868 5869 5869 5869 5870 5870 5870 5870 5871 5871 5871 5872 5872 5873 5873 5873 5874 5874 5874 5874 5875 5875 5876 5876 5877 5877 5877 5877 5877 5878 5878 5878 5879 5879 5879 5880 5880 5880 5881
5861 5862 5862 5862 5862 5862 5862 5862 5862 5862 5862 5862 5862 5862 5862 5862 5862 5862 5861 5861 5861 5861 5861 5861 5861 5861 5862 5862 5863 5863 5863 5864 5864 5864 5865 5865 5865 5865 5866 5866 5866 5866 5866 5866 5866 5866 5867 5867 5867 5867 5868 5868 5868 5869 5869 5869 5870 5870 5871 5871 5872 5872 5872 5873 5873 5873 5873 5874 5874 5875 5875 5875 5875 5875 5876 5876 5876 5877 5877 5877 5877 5878 5878 5878 5879
5859 5860 5860 5860 5860 5860 5860 5860 5861 5861 5861 5861 5861 5860 5860 5860 5861 5860 5860 5860 5860 5860 5859 5859 5859 5860 5860 5860 5860 5861 5861 5861 5862 5862 5862 5863 5863 5863 5864 5864 5864 5864 5864 5864 5864 5865 5865 5865 5865 5866 5866 5866 5867 5867 5867 5868 5868 5869 5869 5869 5870 5870 5871 5871 5871 5871 5872 5872 5873 5873 5873 5874 5874 5874 5874 5874 5874 5875 5875 5875 5876 5876 5876 5877 5877
5858 5858 5858 5858 5858 5857 5858 5858 5859 5859 5859 5859 5859 5859 5859 5859 5859 5859 5859 5859 5858 5858 5858 5858 5858 5858 5858 5858 5858 5858 5859 5859 5859 5860 5860 5860 5861 5861 5862 5862 5862 5862 5862 5862 5863 5863 5863 5863 5863 5864 5864 5864 5865 5865 5865 5866 5866 5867 5867 5868 5868 5868 5869 5869 5869 5870 5871 5871 5871 5871 5872 5872 5872 5872 5873 5873 5873 5873 5874 5874 5874 5875 5875 5875 5875
5856 5856 5856 5856 5855 5855 5855 5855 5856 5856 5857 5856 5856 5857 5857 5857 5857 5857 5857 5857 5857 5857 5856 5856 5856 5856 5856 5856 5856 5856 5857 5857 5857 5857 5858 5858 5859 5859 5859 5860 5860 5860 5860 5860 5860 5861 5861 5861 5861 5862 5862 5862 5862 5863 5863 5864 5864 5864 5865 5865 5866 5866 5867 5867 5868 5868 5868 5869 5869 5869 5870 5870 5870 5871 5871 5871 5871 5872 5872 5872 5873 5873 5873 5874 5874
5854 5854 5854 5853 5853 5853 5853 5852 5853 5853 5854 5854 5854 5854 5854 5855 5855 5855 5855 5855 5855 5855 5855 5855 5855 5855 5855 5855 5855 5855 5855 5855 5855 5855 5856 5856 5856 5857 5857 5857 5857 5858 5858 5858 5858 5858 5858 5858 5859 5859 5859 5860 5860 5860 5861 5861 5861 5862 5862 5863 5863 5864 5864 5865 5865 5866 5866 5866 5867 5867 5867 5868 5868 5868 5869 5869 5869 5870 5870 5871 5871 5872 5872 5872 5872
5851 5852 5851 5851 5850 5850 5850 5850 5850 5850 5851 5851 5851 5852 5852 5852 5852 5852 5852 5853 5853 5853 5853 5853 5853 5853 5853 5853 5853 5853 5853 5854 5854 5854 5854 5854 5854 5854 5855 5855 5855 5855 5855 5855 5855 5855 5856 5856 5856 5856 5856 5857 5857 5858 5858 5859 5859 5859 5860 5860 5861 5861 5862 5862 5863 5863 5863 5863 5864 5864 5865 5865 5865 5866 5866 5867 5867 5868 5868 5868 5869 5869 5870 5870 5871
5849 5849 5849 5848 5848 5848 5848 5849 5849 5848 5848 5848 5848 5849 5849 5849 5849 5850 5850 5850 5850 5850 5851 5851 5851 5851 5851 5851 5852 5852 5852 5852 5852 5851 5851 5851 5851 5852 5852 5852 5852 5852 5853 5853 5853 5853 5853 5853 5853 5853 5853 5854 5854 5855 5855 5856 5856 5857 5857 5858 5858 5859 5859 5859 5860 5860 5860 5861 5861 5861 5862 5862 5863 5863 5863 5864 5865 5865 5866 5866 5866 5867 5867 5868 5869
5847 5847 5846 5846 5846 5846 5846 5847 5847 5847 5846 5845 5845 5846 5846 5846 5846 5846 5847 5847 5847 5848 5848 5848 5849 5849 5849 5849 5850 5850 5850 5850 5850 5850 5849 5849 5849 5849 5849 5849 5849 5850 5850 5850 5850 5850 5850 5850 5851 5851 5851 5851 5852 5852 5852 5853 5853 5854 5854 5854 5855 5855 5856 5856 5857 5857 5857 5858 5858 5858 5859 5859 5860 5860 5860 5861 5861 5862 5863 5863 5864 5864 5865 5865 5866
5846 5845 5844 5843 5844 5844 5845 5845 5845 5845 5844 5844 5843 5843 5843 5843 5843 5843 5844 5844 5844 5845 5845 5845 5846 5846 5846 5846 5847 5847 5847 5848 5848 5847 5847 5847 5847 5847 5847 5847 5847 5847 5847 5848 5848 5848 5847 5848 5848 5848 5848 5848 5848 5849 5849 5850 5850 5850 5851 5851 5852 5852 5852 5852 5853 5854 5854 5854 5855 5855 5855 5856 5856 5857 5857 5857 5858 5859 5860 5860 5861 5861 5862 5862 5863
5844 5844 5843 5842 5841 5842 5842 5842 5842 5842 5842 5842 5841 5841 5840 5840 5840 5840 5840 5840 5841 5841 5842 5842 5842 5843 5843 5843 5844 5844 5844 5845 5845 5844 5844 5844 5844 5844 5845 5845 5845 5845 5845 5845 5845 5845 5844 5845 5845 5845 5845 5845 5845 5846 5846 5846 5847 5847 5847 5848 5848 5848 5849 5849 5849 5850 5850 5851 5851 5851 5852 5852 5853 5853 5853 5854 5854 5855 5856 5856 5857 5858 5858 5858 5859
5841 5842 5841 5841 5840 5839 5839 5839 5839 5839 5839 5839 5839 5838 5838 5837 5837 5837 5837 5837 5837 5837 5837 5838 5838 5839 5839 5839 5840 5840 5841 5841 5841 5841 5840 5841 5841 5841 5842 5842 5842 5842 5842 5842 5842 5841 5841 5841 5842 5842 5841 5841 5842 5842 5842 5842 5843 5843 5843 5844 5844 5844 5845 5845 5845 5846 5846 5847 5847 5848 5848 5848 5849 5849 5849 5850 5850 5851 5852 5853 5853 5854 5854 5855 5855
5838 5838 5839 5839 5838 5837 5836 5836 5835 5835 5836 5836 5836 5835 5835 5835 5834 5834 5833 5833 5834 5833 5833 5834 5834 5834 5835 5835 5835 5835 5836 5837 5837 5837 5837 5837 5837 5837 5838 5838 5838 5838 5838 5838 5838 5838 5838 5838 5839 5838 5838 5838 5839 5839 5839 5839 5839 5839 5840 5840 5840 5841 5841 5841 5841 5842 5842 5843 5843 5844 5844 5844 5845 5845 5846 5846 5847 5847 5848 5848 5849 5850 5850 5851 5851
5833 5834 5835 5836 5835 5835 5834 5833 5832 5831 5832 5832 5832 5831 5831 5831 5831 5830 5830 5830 5830 5830 5830 5830 5830 5830 5831 5831 5831 5831 5831 5832 5833 5833 5833 5833 5833 5833 5833 5834 5834 5834 5834 5834 5834 5834 5834 5834 5835 5835 5835 5835 5835 5835 5835 5835 5835 5836 5836 5836 5836 5837 5837 5838 5838 5838 5838 5839 5839 5840 5840 5840 5841 5841 5842 5842 5843 5843 5844 5844 5845 5845 5846 5847 5847
5829 5829 5829 5830 5830 5830 5829 5829 5828 5827 5827 5827 5827 5827 5827 5827 5827 5827 5827 5827 5826 5826 5827 5827 5826 5826 5827 5827 5827 5827 5826 5827 5828 5828 5828 5828 5829 5828 5829 5829 5829 5829 5829 5829 5829 5829 5829 5830 5831 5831 5831 5831 5832 5832 5832 5832 5832 5832 5833 5833 5833 5833 5833 5834 5834 5834 5835 5835 5835 5836 5836 5836 5837 5837 5838 5838 5838 5839 5839 5840 5840 5841 5842 5842 5843
5824 5824 5824 5824 5824 5825 5825 5825 5824 5823 5823 5822 5822 5823 5823 5823 5823 5823 5823 5823 5823 5823 5823 5823 5823 5822 5822 5823 5823 5823 5823 5823 5823 5823 5823 5824 5824 5824 5824 5825 5825 5824 5824 5824 5825 5825 5825 5825 5826 5827 5827 5827 5827 5828 5828 5828 5828 5829 5829 5829 5829 5829 5830 5830 5830 5830 5831 5831 5831 5832 5832 5832 5833 5833 5833 5833 5834 5834 5835 5835 5836 5836 5837 5838 5838
5821 5820 5820 5820 5820 5820 5821 5821 5820 5820 5819 5818 5818 5818 5818 5818 5819 5819 5819 5819 5819 5819 5819 5819 5819 5819 5819 5819 5819 5819 5819 5819 5819 5819 5819 5819 5820 5820 5820 5820 5820 5820 5819 5820 5820 5821 5821 5821 5821 5822 5822 5822 5822 5823 5823 5823 5824 5824 5825 5825 5825 5825 5826 5826 5826 5827 5826 5827 5827 5827 5828 5828 5828 5829 5829 5829 5829 5830 5830 5831 5831 5832 5833 5833 5834
5817 5817 5816 5816 5815 5815 5815 5816 5816 5816 5815 5814 5814 5813 5813 5813 5814 5815 5815 5815 5815 5815 5815 5815 5815 5815 5815 5815 5815 5815 5815 5815 5815 5816 5815 5815 5815 5816 5815 5815 5815 5815 5815 5815 5816 5816 5816 5817 5817 5817 5817 5817 5817 5818 5818 5818 5818 5819 5819 5820 5821 5821 5821 5822 5822 5822 5822 5822 5822 5823 5823 5823 5824 5824 5824 5824 5825 5825 5826 5826 5827 5827 5828 5828 5829
5813 5813 5812 5812 5811 5811 5811 5811 5812 5812 5811 5811 5810 5810 5809 5809 5809 5810 5810 5810 5811 5810 5810 5810 5810 5810 5810 5810 5810 5811 5810 5810 5811 5812 5812 5811 5811 5811 5811 5810 5810 5811 5811 5811 5811 5811 5812 5812 5813 5813 5813 5813 5813 5813 5813 5813 5813 5813 5814 5815 5816 5816 5816 5817 5817 5818 5818 5818 5818 5818 5818 5818 5819 5819 5819 5820 5820 5820 5821 5821 5822 5822 5823 5824 5824
5808 5808 5808 5808 5807 5807 5807 5807 5807 5808 5808 5807 5807 5806 5805 5805 5805 5805 5805 5806 5806 5806 5806 5806 5805 5806 5806 5806 5806 5806 5806 5806 5806 5807 5807 5807 5807 5807 5806 5806 5806 5806 5806 5806 5806 5806 5807 5808 5808 5808 5808 5808 5808 5808 5808 5808 5808 5808 5809 5810 5810 5811 5811 5812 5812 5813 5813 5813 5813 5813 5813 5814 5814 5814 5814 5814 5815 5815 5816 5816 5817 5817 5818 5819 5819
5803 5803 5803 5803 5803 5803 5803 5803 5803 5803 5804 5803 5803 5802 5802 5801 5801 5801 5801 5801 5802 5802 5801 5801 5801 5801 5801 5802 5801 5801 5801 5801 5801 5802 5802 5803 5802 5802 5802 5802 5802 5802 5802 5802 5802 5802 5802 5803 5803 5804 5804 5803 5803 5803 5803 5803 5803 5803 5804 5805 5805 5805 5806 5807 5807 5807 5808 5808 5809 5809 5809 5809 5809 5809 5809 5809 5810 5810 5811 5811 5812 5812 5813 5813 5814
5799 5799 5799 5799 5799 5799 5799 5799 5799 5799 5799 5799 5799 5798 5798 5798 5797 5797 5796 5796 5797 5797 5797 5797 5797 5797 5797 5797 5797 5797 5797 5796 5796 5797 5797 5798 5798 5797 5797 5798 5798 5798 5799 5798 5798 5798 5798 5798 5798 5798 5798 5798 5798 5798 5798 5798 5799 5799 5799 5799 5800 5800 5801 5801 5801 5801 5802 5803 5804 5804 5804 5804 5804 5804 5804 5804 5805 5805 5805 5806 5806 5807 5808 5808 5809
5795 5795 5795 5795 5795 5795 5795 5795 5795 5795 5795 5795 5795 5795 5795 5794 5794 5793 5793 5792 5792 5792 5793 5793 5792 5792 5792 5793 5793 5792 5792 5791 5791 5791 5792 5792 5793 5793 5793 5793 5794 5794 5794 5794 5794 5793 5793 5792 5792 5793 5793 5793 5793 5794 5794 5794 5794 5794 5794 5794 5795 5795 5795 5795 5795 5796 5797 5798 5798 5799 5800 5799 5799 5799 5799 5799 5800 5800 5800 5801 5801 5802 5803 5803 5803
5792 5791 5791 5791 5791 5791 5791 5791 5791 5791 5791 5792 5792 5792 5791 5791 5791 5790 5790 5789 5789 5788 5788 5788 5788 5788 5788 5788 5788 5788 5787 5787 5786 5786 5786 5787 5787 5788 5788 5788 5788 5789 5789 5789 5788 5788 5787 5787 5787 5787 5787 5788 5788 5789 5789 5789 5789 5790 5790 5790 5790 5790 5790 5790 5791 5791 5792 5793 5793 5794 5794 5794 5794 5794 5794 5795 5795 5796 5796 5796 5797 5797 5798 5798 5798
5788 5787 5787 5787 5787 5787 5787 5787 5787 5787 5787 5787 5788 5788 5788 5788 5787 5787 5787 5786 5785 5785 5784 5784 5784 5784 5784 5783 5783 5783 5782 5782 5781 5782 5782 5782 5782 5782 5782 5782 5783 5783 5783 5783 5783 5782 5782 5782 5782 5782 5781 5782 5783 5783 5783 5784 5784 5785 5785 5784 5784 5784 5785 5786 5786 5786 5788 5789 5789 5788 5789 5788 5789 5790 5790 5791 5791 5791 5791 5791 5792 5792 5793 5793 5793
5784 5783 5783 5782 5782 5782 5782 5783 5783 5782 5782 5783 5783 5783 5784 5784 5784 5783 5783 5782 5782 5781 5780 5780 5779 5779 5779 5778 5778 5778 5777 5777 5776 5776 5776 5776 5776 5776 5777 5777 5777 5777 5777 5777 5777 5776 5777 5776 5776 5776 5776 5776 5776 5777 5778 5779 5779 5779 5779 5778 5779 5780 5781 5781 5782 5783 5784 5784 5783 5783 5783 5784 5784 5785 5786 5787 5786 5786 5786 5786 5787 5787 5787 5787 5788
5780 5779 5779 5778 5778 5777 5777 5777 5778 5778 5778 5778 5778 5779 5779 5779 5779 5779 5779 5779 5778 5778 5777 5776 5775 5774 5774 5774 5773 5773 5773 5772 5772 5771 5771 5771 5770 5770 5771 5771 5771 5771 5771 5771 5771 5770 5770 5770 5770 5771 5770 5770 5770 5772 5773 5774 5773 5773 5773 5773 5774 5774 5774 5776 5777 5778 5778 5777 5777 5778 5778 5779 5779 5780 5781 5782 5782 5781 5781 5781 5782 5782 5782 5782 5782
5775 5775 5775 5774 5774 5773 5773 5773 5773 5773 5773 5773 5773 5773 5774 5774 5774 5774 5774 5774 5774 5773 5773 5772 5771 5770 5770 5769 5769 5768 5768 5768 5767 5767 5766 5766 5765 5765 5765 5765 5765 5765 5765 5765 5765 5764 5764 5764 5764 5764 5764 5764 5764 5765 5767 5767 5767 5767 5767 5767 5767 5767 5769 5771 5771 5771 5771 5771 5772 5772 5773 5773 5773 5774 5775 5776 5777 5777 5777 5776 5776 5777 5777 5776 5777
5772 5771 5770 5770 5769 5769 5769 5768 5768 5768 5767 5767 5767 5767 5767 5768 5768 5768 5768 5768 5767 5767 5767 5767 5767 5766 5765 5764 5764 5763 5763 5763 5762 5762 5761 5761 5760 5760 5759 5759 5759 5759 5759 5759 5759 5758 5758 5757 5757 5758 5758 5758 5758 5758 5759 5760 5761 5762 5761 5760 5760 5761 5763 5765 5764 5763 5764 5765 5765 5766 5766 5767 5767 5768 5769 5770 5771 5771 5771 5770 5770 5771 5771 5771 5772
5768 5767 5766 5766 5765 5764 5764 5763 5763 5762 5762 5762 5761 5761 5761 5761 5761 5761 5761 5761 5760 5760 5760 5760 5760 5760 5759 5759 5759 5759 5758 5757 5757 5756 5755 5755 5754 5754 5754 5753 5753 5753 5753 5753 5753 5752 5752 5751 5751 5750 5751 5751 5751 5751 5752 5753 5754 5754 5753 5753 5754 5754 5755 5756 5757 5757 5758 5758 5759 5759 5760 5761 5761 5762 5763 5763 5764 5764 5764 5764 5765 5765 5766 5766 5767
5763 5763 5762 5761 5760 5759 5758 5757 5756 5755 5755 5755 5755 5755 5754 5754 5754 5753 5753 5753 5753 5753 5753 5753 5753 5752 5752 5752 5752 5752 5752 5752 5751 5750 5750 5749 5748 5748 5748 5747 5747 5746 5746 5746 5746 5746 5745 5744 5744 5744 5744 5744 5744 5744 5745 5745 5746 5747 5747 5748 5747 5746 5747 5748 5749 5750 5750 5751 5752 5753 5754 5754 5755 5755 5755 5756 5757 5757 5757 5757 5758 5760 5761 5761 5761
5758 5757 5756 5755 5754 5753 5752 5751 5750 5748 5748 5747 5747 5748 5747 5747 5746 5746 5746 5745 5745 5745 5745 5745 5744 5744 5744 5744 5744 5744 5744 5744 5744 5744 5743 5743 5742 5741 5741 5740 5740 5739 5739 5739 5739 5739 5738 5738 5737 5737 5737 5737 5737 5737 5737 5737 5738 5739 5740 5740 5740 5739 5739 5739 5741 5742 5743 5744 5746 5747 5747 5747 5747 5748 5748 5749 5750 5750 5750 5751 5752 5753 5755 5755 5755
5751 5750 5750 5749 5748 5747 5746 5745 5743 5742 5741 5740 5739 5739 5740 5739 5739 5738 5738 5737 5737 5737 5736 5736 5736 5736 5735 5735 5735 5735 5735 5736 5735 5735 5735 5735 5735 5734 5734 5733 5733 5732 5732 5731 5731 5731 5730 5730 5730 5730 5730 5730 5730 5729 5730 5730 5730 5731 5731 5732 5732 5732 5732 5732 5733 5734 5735 5737 5738 5739 5739 5739 5739 5741 5741 5741 5742 5743 5744 5745 5746 5747 5748 5749 5748
5744 5743 5742 5741 5740 5739 5738 5737 5736 5735 5734 5732 5731 5731 5731 5731 5730 5730 5729 5729 5729 5728 5728 5728 5727 5727 5727 5726 5726 5726 5726 5726 5726 5726 5726 5726 5726 5726 5725 5725 5725 5724 5724 5724 5723 5723 5722 5722 5721 5721 5722 5722 5722 5722 5722 5722 5722 5722 5722 5723 5724 5724 5724 5724 5725 5726 5726 5727 5728 5730 5731 5731 5732 5733 5732 5733 5734 5735 5737 5738 5739 5740 5741 5741 5741
5736 5735 5734 5733 5732 5732 5731 5730 5729 5727 5726 5725 5724 5723 5722 5722 5722 5721 5721 5720 5720 5720 5719 5719 5719 5718 5718 5717 5717 5717 5717 5717 5717 5716 5716 5717 5716 5716 5716 5716 5716 5716 5715 5715 5715 5715 5715 5714 5713 5713 5713 5713 5713 5713 5714 5714 5714 5714 5714 5714 5715 5716 5716 5716 5717 5716 5717 5719 5719 5720 5721 5722 5723 5725 5725 5725 5726 5727 5729 5730 5731 5733 5734 5735 5735